INTELSAT 10 (IS-10)     
1 26766U 01019A   19258.83932692  .00000118  00000-0  00000-0 0  9995
2 26766   3.2705  80.7534 0001347  54.8003 208.6130  1.00272960 20906
BLOCK DM R/B            
1 26769U 01019D   19258.43294929 -.00000098  00000-0  00000-0 0  9996
2 26769  16.7972 268.8252 5210632 234.2616 322.5306  1.86700862125074